LAGEOS 1 AKM

基本信息
目录编号:
8822
目录名称:
LAGEOS 1 AKM
国际标识:
1976-039C
轨道中心:
EARTH
物体状态:
在轨
发射日期:
1976-05-04 UTC
国别:
美国 (US)
轨道信息
数据来源: 国际轨道数据
星历时间: 2026-07-10T19:55:41+0800
半长轴: 12268.539km
偏心率: 0.0045852
轨道倾角: 109.806°
近地点辐角: 292.281°
升交点赤经: 192.071°
平近点角: 59.863°
近地点: 5834.148km
远地点: 5946.656km
周期: 225.397分钟
每日圈数: 6.388715
详细信息
发射场:
AFWTR
轨道高度:
MEO
数据来源:
AOE Integration Group
参考系:
TEME
时间系统:
UTC
历元类型:
SGP4
2D轨道图
3D轨道图
轨道高度分析图
轨道倾角分析图
轨道综合分析图
查看轨道综合分析图